TimeEST,TemperatureF,Dew PointF,Humidity,Sea Level PressureIn,VisibilityMPH,Wind Direction,Wind SpeedMPH,Gust SpeedMPH,PrecipitationIn,Events,Conditions,WindDirDegrees,DateUTC
12:53 AM,44.1,39.9,85,30.18,10.0,NNW,6.9,-,N/A,,Overcast,340,2013-01-07 05:53:00
1:53 AM,43.0,37.0,80,30.19,10.0,North,5.8,-,N/A,,Mostly Cloudy,350,2013-01-07 06:53:00
2:53 AM,42.1,35.1,76,30.20,10.0,NW,3.5,-,N/A,,Clear,320,2013-01-07 07:53:00
3:53 AM,41.0,34.0,76,30.20,10.0,NNW,3.5,-,N/A,,Clear,330,2013-01-07 08:53:00
4:53 AM,35.1,32.0,89,30.23,10.0,NW,3.5,-,N/A,,Clear,310,2013-01-07 09:53:00
5:53 AM,39.0,30.9,73,30.25,10.0,NNW,4.6,-,N/A,,Clear,340,2013-01-07 10:53:00
6:53 AM,37.9,30.9,76,30.29,10.0,NNW,4.6,-,N/A,,Clear,330,2013-01-07 11:53:00
7:53 AM,37.9,30.9,76,30.32,10.0,North,6.9,-,N/A,,Clear,350,2013-01-07 12:53:00
8:53 AM,43.0,33.1,68,30.35,10.0,North,10.4,-,N/A,,Clear,360,2013-01-07 13:53:00
9:53 AM,46.0,34.0,63,30.38,10.0,NNE,11.5,-,N/A,,Clear,20,2013-01-07 14:53:00
10:53 AM,48.9,32.0,52,30.38,10.0,NNE,11.5,19.6,N/A,,Clear,30,2013-01-07 15:53:00
11:53 AM,51.1,30.9,46,30.38,10.0,NE,9.2,-,N/A,,Clear,40,2013-01-07 16:53:00
12:53 PM,53.1,30.9,43,30.36,10.0,NNE,13.8,-,N/A,,Clear,20,2013-01-07 17:53:00
1:53 PM,53.1,30.9,43,30.36,10.0,NE,9.2,-,N/A,,Clear,50,2013-01-07 18:53:00
2:53 PM,53.1,28.9,40,30.37,10.0,ENE,6.9,-,N/A,,Clear,70,2013-01-07 19:53:00
3:53 PM,53.1,30.9,43,30.38,10.0,Variable,6.9,-,N/A,,Clear,0,2013-01-07 20:53:00
4:53 PM,50.0,32.0,50,30.38,10.0,ENE,3.5,-,N/A,,Clear,60,2013-01-07 21:53:00
5:53 PM,46.0,33.1,61,30.39,10.0,Calm,Calm,-,N/A,,Clear,0,2013-01-07 22:53:00
6:53 PM,44.1,32.0,63,30.41,10.0,Calm,Calm,-,N/A,,Clear,0,2013-01-07 23:53:00
7:53 PM,39.9,32.0,73,30.42,10.0,Calm,Calm,-,N/A,,Clear,0,2013-01-08 00:53:00
8:53 PM,39.0,32.0,76,30.42,10.0,NE,4.6,-,N/A,,Clear,50,2013-01-08 01:53:00
9:53 PM,37.9,32.0,79,30.42,10.0,NE,3.5,-,N/A,,Clear,40,2013-01-08 02:53:00
10:53 PM,35.1,30.9,85,30.41,10.0,NE,5.8,-,N/A,,Clear,40,2013-01-08 03:53:00
11:53 PM,36.0,30.9,82,30.40,10.0,Calm,Calm,-,N/A,,Clear,0,2013-01-08 04:53:00